EW0352 Weather Reports


time (UTC)temp
C
wind
direction
speed
KPH
gust
KPH
rain 1hr
cm
rain 24hr
cm
rain mn
cm
humidity
%
barometer
mb
20260906173707 23 140 3.2 11.3 0.00 0.00 0.00 82 1017.6
20260906173208 23 177 1.6 9.7 0.00 0.00 0.00 84 1017.6
20260906172708 23 134 3.2 8.0 0.00 0.00 0.00 84 1017.6
20260906171708 23 189 3.2 14.5 0.00 0.00 0.00 84 1017.7
20260906171207 22 111 3.2 4.8 0.00 0.00 0.00 84 1018.0
20260906170707 22 127 1.6 4.8 0.00 0.00 0.00 85 1018.1
20260906170207 22 142 1.6 4.8 0.00 0.00 0.00 86 1018.1
20260906165708 22 116 3.2 4.8 0.00 0.00 0.00 85 1018.1
20260906165207 22 124 3.2 9.7 0.00 0.00 0.00 86 1018.2
20260906164708 22 117 3.2 4.8 0.00 0.00 0.00 87 1018.2
20260906164207 22 158 3.2 8.0 0.00 0.00 0.00 88 1018.2
20260906163708 22 117 3.2 4.8 0.00 0.00 0.00 88 1018.3
20260906163207 22 109 3.2 4.8 0.00 0.00 0.00 88 1018.3
20260906162707 22 67 3.2 11.3 0.00 0.00 0.00 88 1018.2
20260906162207 21 94 3.2 4.8 0.00 0.00 0.00 89 1018.3
20260906161207 21 144 3.2 4.8 0.00 0.00 0.00 89 1018.4
20260906160707 21 111 1.6 4.8 0.00 0.00 0.00 89 1018.4
20260906155707 21 113 3.2 4.8 0.00 0.00 0.00 89 1018.3
20260906155207 21 147 4.8 11.3 0.00 0.00 0.00 89 1018.2
20260906154707 21 122 3.2 8.0 0.00 0.00 0.00 90 1018.3
20260906154207 21 120 3.2 8.0 0.00 0.00 0.00 90 1018.3
20260906153707 21 128 3.2 8.0 0.00 0.00 0.00 90 1018.3
20260906153207 21 120 4.8 12.9 0.00 0.00 0.00 89 1018.3
20260906152707 21 132 3.2 4.8 0.00 0.00 0.00 89 1018.4
20260906151207 21 150 4.8 12.9 0.00 0.00 0.00 89 1018.5
20260906150708 21 115 3.2 8.0 0.00 0.00 0.00 89 1018.5
20260906150207 21 116 3.2 11.3 0.00 0.00 0.00 89 1018.4
20260906145708 21 139 3.2 4.8 0.00 0.00 0.00 89 1018.4
20260906145208 21 98 1.6 4.8 0.00 0.00 0.00 90 1018.4
20260906144708 21 108 3.2 4.8 0.00 0.00 0.00 89 1018.3
20260906144207 21 126 1.6 4.8 0.00 0.00 0.00 89 1018.4
20260906143707 21 131 3.2 4.8 0.00 0.00 0.00 89 1018.4
20260906143207 21 102 3.2 11.3 0.00 0.00 0.00 89 1018.3
20260906142707 21 136 4.8 11.3 0.00 0.00 0.00 89 1018.3
20260906142207 21 117 3.2 9.7 0.00 0.00 0.00 89 1018.2
20260906141708 21 118 6.4 16.1 0.00 0.00 0.00 90 1018.2
20260906141207 21 124 3.2 8.0 0.00 0.00 0.00 90 1018.2
20260906140707 21 129 3.2 4.8 0.00 0.00 0.00 91 1018.3
20260906135707 21 89 3.2 11.3 0.00 0.00 0.00 90 1018.3
20260906135207 21 92 4.8 11.3 0.00 0.00 0.00 91 1018.2
20260906134707 21 102 3.2 11.3 0.00 0.00 0.00 91 1018.1
20260906134207 21 81 3.2 8.0 0.00 0.00 0.00 91 1018.0
20260906133207 21 117 3.2 4.8 0.00 0.00 0.00 91 1017.9
20260906132708 21 115 1.6 4.8 0.00 0.00 0.00 92 1017.9
20260906132208 21 101 1.6 4.8 0.00 0.00 0.00 92 1017.9
20260906131708 21 127 3.2 11.3 0.00 0.00 0.00 92 1017.8
20260906130708 21 143 3.2 4.8 0.00 0.00 0.00 92 1017.8
20260906130207 20 127 1.6 11.3 0.00 0.00 0.00 92 1017.7
20260906125708 20 110 3.2 9.7 0.00 0.00 0.00 92 1017.6
20260906125208 20 91 3.2 4.8 0.00 0.00 0.00 93 1017.7
20260906124707 20 83 3.2 4.8 0.00 0.00 0.00 93 1017.7
20260906124207 20 98 1.6 4.8 0.00 0.00 0.00 93 1017.7
20260906123708 20 130 1.6 4.8 0.00 0.00 0.00 93 1017.6
20260906123207 20 96 3.2 4.8 0.00 0.00 0.00 93 1017.6
20260906122208 20 76 0.0 1.6 0.00 0.00 0.00 93 1017.7
20260906121208 20 78 0.0 3.2 0.00 0.00 0.00 93 1017.7
20260906120708 20 87 1.6 3.2 0.00 0.00 0.00 93 1017.6
20260906120208 20 87 0.0 3.2 0.00 0.00 0.00 93 1017.6
20260906115708 20 87 0.0 3.2 0.00 0.00 0.00 93 1017.6
20260906115207 20 87 0.0 4.8 0.00 0.00 0.00 93 1017.4
20260906114708 20 69 0.0 3.2 0.00 0.00 0.00 92 1017.4
20260906114207 20 82 0.0 3.2 0.00 0.00 0.00 92 1017.4
20260906113707 20 79 0.0 3.2 0.00 0.00 0.00 92 1017.4
20260906113208 20 79 1.6 3.2 0.00 0.00 0.00 92 1017.3
20260906112708 20 102 0.0 1.6 0.00 0.00 0.00 92 1017.3
20260906112208 20 75 0.0 4.8 0.00 0.00 0.00 92 1017.2
20260906111708 20 73 0.0 1.6 0.00 0.00 0.00 92 1017.1
20260906111208 21 73 1.6 4.8 0.00 0.00 0.00 92 1017.1
20260906110207 21 74 1.6 8.0 0.00 0.00 0.00 92 1017.1
20260906105707 21 89 3.2 8.0 0.00 0.00 0.00 92 1017.1
20260906105208 21 78 0.0 4.8 0.00 0.00 0.00 92 1017.1
20260906104708 21 78 0.0 1.6 0.00 0.00 0.00 91 1017.1
20260906104208 21 76 0.0 1.6 0.00 0.00 0.00 91 1017.1
20260906103707 21 95 0.0 3.2 0.00 0.00 0.00 91 1017.1
20260906103208 21 99 0.0 1.6 0.00 0.00 0.00 91 1017.1
20260906102708 21 99 0.0 1.6 0.00 0.00 0.00 91 1017.0
20260906102207 21 99 0.0 1.6 0.00 0.00 0.00 91 1017.0
20260906101207 21 82 0.0 1.6 0.00 0.00 0.00 91 1016.9
20260906100708 21 87 0.0 1.6 0.00 0.00 0.00 91 1017.0
20260906100208 21 87 1.6 3.2 0.00 0.00 0.00 91 1016.9
20260906095708 21 87 1.6 1.6 0.00 0.00 0.00 90 1016.8
20260906095208 21 87 0.0 1.6 0.00 0.00 0.00 90 1016.7
20260906094207 21 87 1.6 4.8 0.00 0.00 0.00 90 1016.3
20260906093708 21 114 1.6 3.2 0.00 0.00 0.00 90 1016.3
20260906093208 21 88 1.6 3.2 0.00 0.00 0.00 90 1016.4
20260906092708 21 87 0.0 3.2 0.00 0.00 0.00 89 1016.3
20260906091708 21 84 1.6 8.0 0.00 0.00 0.00 89 1016.1
20260906091207 21 110 1.6 4.8 0.00 0.00 0.00 89 1016.1
20260906090708 21 139 1.6 4.8 0.00 0.00 0.00 89 1016.1
20260906090207 21 120 3.2 11.3 0.00 0.00 0.00 89 1016.2
20260906085208 21 115 3.2 4.8 0.00 0.00 0.00 88 1016.3
20260906084708 22 96 1.6 4.8 0.00 0.00 0.00 88 1016.3
20260906084208 22 91 1.6 4.8 0.00 0.00 0.00 88 1016.3
20260906083208 22 99 1.6 4.8 0.00 0.00 0.00 88 1016.1
20260906082709 22 92 1.6 4.8 0.00 0.00 0.00 87 1016.0
20260906082208 22 82 3.2 9.7 0.00 0.00 0.00 87 1016.0
20260906081708 22 110 3.2 11.3 0.00 0.00 0.00 87 1016.0
20260906081208 22 97 3.2 11.3 0.00 0.00 0.00 87 1016.0
20260906080708 22 94 1.6 4.8 0.00 0.00 0.00 87 1016.0
20260906080208 22 110 1.6 4.8 0.00 0.00 0.00 87 1015.9
20260906075708 22 138 3.2 4.8 0.00 0.00 0.00 87 1015.8
20260906075208 22 130 1.6 3.2 0.00 0.00 0.00 87 1016.0
20260906074708 22 113 1.6 4.8 0.00 0.00 0.00 87 1016.0
20260906073708 22 89 3.2 9.7 0.00 0.00 0.00 87 1016.1
20260906073208 22 133 3.2 14.5 0.00 0.00 0.00 87 1016.1
20260906072709 22 84 3.2 8.0 0.00 0.00 0.00 87 1016.2
20260906071705 22 126 1.6 4.8 0.00 0.00 0.00 86 1016.3
20260906071206 22 90 1.6 4.8 0.00 0.00 0.00 86 1016.4
20260906070205 22 112 1.6 4.8 0.00 0.00 0.00 86 1016.4
20260906065705 22 120 1.6 4.8 0.00 0.00 0.00 86 1016.5
20260906065206 22 126 1.6 4.8 0.00 0.00 0.00 86 1016.7
20260906064705 22 102 1.6 3.2 0.00 0.00 0.00 86 1016.7
20260906064206 23 102 3.2 8.0 0.00 0.00 0.00 86 1016.6
20260906063205 23 81 4.8 11.3 0.00 0.00 0.00 86 1016.5
20260906062706 23 104 1.6 4.8 0.00 0.00 0.00 86 1016.5
20260906062206 23 80 1.6 4.8 0.00 0.00 0.00 86 1016.5
20260906061206 23 138 1.6 3.2 0.00 0.00 0.00 86 1016.5
20260906060705 23 138 1.6 4.8 0.00 0.00 0.00 86 1016.6
20260906060206 23 128 1.6 4.8 0.00 0.00 0.00 86 1016.6
20260906055706 23 126 3.2 4.8 0.00 0.00 0.00 86 1016.5
20260906055206 23 135 1.6 4.8 0.00 0.00 0.00 86 1016.5
20260906053706 23 121 1.6 4.8 0.00 0.00 0.00 85 1016.5
20260906052706 23 93 1.6 4.8 0.00 0.00 0.00 84 1016.5
20260906051706 23 111 1.6 4.8 0.00 0.00 0.00 83 1016.5
20260906051206 23 128 1.6 4.8 0.00 0.00 0.00 83 1016.6
20260906050706 23 112 3.2 4.8 0.00 0.00 0.00 83 1016.6
20260906050206 23 124 1.6 4.8 0.00 0.00 0.00 83 1016.7
20260906045706 23 124 3.2 4.8 0.00 0.00 0.00 83 1016.7
20260906045206 23 142 1.6 3.2 0.00 0.00 0.00 83 1016.8
20260906044206 23 148 1.6 4.8 0.00 0.00 0.00 83 1016.8
20260906043706 23 123 1.6 4.8 0.00 0.00 0.00 83 1016.8
20260906043208 23 86 1.6 4.8 0.00 0.00 0.00 83 1016.9
20260906042706 23 78 1.6 3.2 0.00 0.00 0.00 83 1016.9
20260906042206 23 92 1.6 9.7 0.00 0.00 0.00 84 1017.0
20260906041706 23 84 0.0 4.8 0.00 0.00 0.00 84 1016.9
20260906041206 23 82 1.6 3.2 0.00 0.00 0.00 84 1016.9
20260906040707 23 88 1.6 4.8 0.00 0.00 0.00 85 1017.0
20260906040206 23 96 1.6 4.8 0.00 0.00 0.00 85 1017.0
20260906034706 23 84 0.0 1.6 0.00 0.00 0.00 85 1017.0
20260906034206 23 85 0.0 0.0 0.00 0.00 0.00 84 1017.0
20260906033706 23 85 0.0 1.6 0.00 0.00 0.00 84 1017.0
20260906033206 23 85 1.6 1.6 0.00 0.00 0.00 84 1017.0
20260906032706 23 69 0.0 1.6 0.00 0.00 0.00 84 1017.0
20260906032206 23 67 0.0 3.2 0.00 0.00 0.00 84 1017.0
20260906031707 23 81 0.0 1.6 0.00 0.00 0.00 83 1016.9
20260906031206 23 81 0.0 1.6 0.00 0.00 0.00 83 1016.9
20260906030706 23 84 0.0 1.6 0.00 0.00 0.00 83 1016.9
20260906025706 23 53 0.0 1.6 0.00 0.00 0.00 83 1017.0
20260906025206 23 86 0.0 1.6 0.00 0.00 0.00 83 1017.0
20260906024706 23 41 0.0 1.6 0.00 0.00 0.00 83 1017.0
20260906024206 23 40 0.0 0.0 0.00 0.00 0.00 83 1017.1
20260906023707 23 40 0.0 3.2 0.00 0.00 0.00 82 1017.0
20260906023206 23 198 0.0 11.3 0.00 0.00 0.00 82 1017.0
20260906022206 23 106 0.0 3.2 0.00 0.00 0.00 82 1016.6
20260906021706 24 85 0.0 1.6 0.00 0.00 0.00 82 1016.6
20260906021206 24 86 0.0 1.6 0.00 0.00 0.00 82 1016.4
20260906020206 24 104 0.0 1.6 0.00 0.00 0.00 81 1016.2
20260906015706 24 138 0.0 3.2 0.00 0.00 0.00 81 1016.0
20260906015206 24 138 0.0 3.2 0.00 0.00 0.00 81 1015.8
20260906014706 24 91 0.0 1.6 0.00 0.00 0.00 81 1015.8
20260906014207 25 162 1.6 3.2 0.00 0.00 0.00 81 1015.6
20260906013706 25 162 3.2 4.8 0.00 0.00 0.00 80 1015.4
20260906013207 25 89 0.0 3.2 0.00 0.00 0.00 80 1015.2
20260906012706 25 139 1.6 3.2 0.00 0.00 0.00 80 1015.1
20260906012206 25 139 3.2 4.8 0.00 0.00 0.00 80 1015.0
20260906011706 25 101 3.2 4.8 0.00 0.00 0.00 79 1014.9
20260906011207 25 183 1.6 14.5 0.00 0.00 0.00 79 1014.8
20260906010706 25 107 0.0 4.8 0.00 0.00 0.00 78 1014.8
20260906005707 26 131 3.2 4.8 0.00 0.00 0.00 77 1014.7
20260906004707 26 144 3.2 20.9 0.00 0.00 0.00 76 1014.7
20260906004206 26 82 1.6 9.7 0.00 0.00 0.00 75 1014.6
20260906003706 26 79 3.2 12.9 0.00 0.00 0.00 74 1014.5
20260906002206 27 123 4.8 12.9 0.00 0.00 0.00 69 1014.1
20260906001707 27 134 1.6 12.9 0.00 0.00 0.00 69 1014.1
20260906001206 27 92 3.2 11.3 0.00 0.00 0.00 68 1014.1
20260906000706 27 80 4.8 12.9 0.00 0.00 0.00 67 1014.2
20260906000207 28 121 3.2 8.0 0.00 0.00 0.00 66 1014.2
20260905235706 28 96 3.2 4.8 0.00 0.00 0.00 65 1014.1
20260905235207 28 95 3.2 11.3 0.00 0.00 0.00 65 1014.1
20260905234706 28 107 4.8 11.3 0.00 0.00 0.00 64 1014.1
20260905233707 28 101 1.6 16.1 0.00 0.00 0.00 64 1014.0
20260905233207 28 106 4.8 9.7 0.00 0.00 0.00 63 1014.0
20260905232207 28 102 4.8 14.5 0.00 0.00 0.00 62 1013.8
20260905231707 28 84 4.8 14.5 0.00 0.00 0.00 63 1013.8
20260905230707 28 76 1.6 4.8 0.00 0.00 0.00 63 1013.7
20260905230207 28 126 3.2 11.3 0.00 0.00 0.00 63 1013.5
20260905225707 28 93 4.8 12.9 0.00 0.00 0.00 63 1013.5
20260905225206 28 114 4.8 9.7 0.00 0.00 0.00 62 1013.5
20260905224707 28 97 4.8 12.9 0.00 0.00 0.00 61 1013.4
20260905224207 29 115 4.8 11.3 0.00 0.00 0.00 61 1013.3
20260905223207 29 118 8.0 12.9 0.00 0.00 0.00 62 1013.3
20260905222206 29 132 4.8 11.3 0.00 0.00 0.00 63 1013.4
20260905221708 29 139 3.2 8.0 0.00 0.00 0.00 62 1013.5
20260905221206 29 93 4.8 14.5 0.00 0.00 0.00 61 1013.6
20260905220708 29 82 3.2 12.9 0.00 0.00 0.00 62 1013.8
20260905220206 29 101 1.6 11.3 0.00 0.00 0.00 63 1013.8
20260905215707 29 80 3.2 14.5 0.00 0.00 0.00 62 1013.8
20260905215207 29 66 3.2 8.0 0.00 0.00 0.00 63 1013.8
20260905214707 28 57 1.6 8.0 0.00 0.00 0.00 65 1013.9
20260905214207 28 67 3.2 4.8 0.00 0.00 0.00 65 1014.0
20260905213707 28 81 4.8 12.9 0.00 0.00 0.00 64 1013.9
20260905213207 28 122 8.0 16.1 0.00 0.00 0.00 64 1013.9
20260905212707 28 94 3.2 12.9 0.00 0.00 0.00 64 1013.9
20260905211707 28 65 4.8 9.7 0.00 0.00 0.00 64 1013.9
20260905210707 28 32 4.8 14.5 0.00 0.00 0.00 65 1013.8
20260905210207 28 61 3.2 11.3 0.00 0.00 0.00 66 1013.9
20260905205707 28 117 8.0 16.1 0.00 0.00 0.00 66 1013.9
20260905205207 28 101 8.0 16.1 0.00 0.00 0.00 67 1013.9
20260905204707 28 54 4.8 12.9 0.00 0.00 0.00 67 1014.1
20260905204207 28 90 3.2 11.3 0.00 0.00 0.00 68 1014.2
20260905203707 28 107 4.8 11.3 0.00 0.00 0.00 68 1014.5
20260905203208 28 100 3.2 11.3 0.00 0.00 0.00 70 1014.8
20260905202206 27 126 3.2 4.8 0.00 0.00 0.00 69 1015.0
20260905201707 27 114 3.2 4.8 0.00 0.00 0.00 70 1015.0
20260905201207 27 50 3.2 4.8 0.00 0.00 0.00 71 1015.2
20260905200708 27 50 3.2 11.3 0.00 0.00 0.00 71 1015.3
20260905195708 27 116 3.2 4.8 0.00 0.00 0.00 72 1015.4
20260905195207 27 111 1.6 4.8 0.00 0.00 0.00 72 1015.5
20260905194707 27 66 1.6 4.8 0.00 0.00 0.00 73 1015.5
20260905194207 27 57 1.6 8.0 0.00 0.00 0.00 73 1015.7
20260905193707 27 43 3.2 4.8 0.00 0.00 0.00 73 1015.8
20260905192707 27 110 1.6 4.8 0.00 0.00 0.00 73 1015.8
20260905192207 27 233 1.6 3.2 0.00 0.00 0.00 75 1016.0
20260905191707 26 54 1.6 3.2 0.00 0.00 0.00 76 1016.0
20260905191207 26 5 1.6 3.2 0.00 0.00 0.00 75 1016.0
20260905190707 26 0 1.6 4.8 0.00 0.00 0.00 76 1015.9
20260905190207 26 41 1.6 4.8 0.00 0.00 0.00 75 1015.8
20260905185707 26 146 1.6 4.8 0.00 0.00 0.00 76 1015.9
20260905185207 26 5 1.6 3.2 0.00 0.00 0.00 77 1015.9
20260905184707 26 122 0.0 4.8 0.00 0.00 0.00 76 1015.9
20260905184207 26 93 1.6 4.8 0.00 0.00 0.00 76 1016.0
20260905183707 26 196 1.6 4.8 0.00 0.00 0.00 76 1016.0
20260905183207 26 138 3.2 4.8 0.00 0.00 0.00 76 1016.0
20260905182706 26 167 3.2 4.8 0.00 0.00 0.00 77 1016.1
20260905182207 26 340 1.6 3.2 0.00 0.00 0.00 77 1016.1
20260905181207 25 204 3.2 4.8 0.00 0.00 0.00 78 1016.3
20260905180708 25 111 1.6 9.7 0.00 0.00 0.00 80 1016.2
20260905180207 25 96 3.2 4.8 0.00 0.00 0.00 80 1016.3
20260905175707 25 85 1.6 4.8 0.00 0.00 0.00 80 1016.4
20260905175207 25 152 1.6 4.8 0.00 0.00 0.00 80 1016.5
20260905174707 25 57 3.2 4.8 0.00 0.00 0.00 81 1016.5
20260905174207 25 146 1.6 4.8 0.00 0.00 0.00 82 1016.6